Location: St. Louis
(38.6270°N, 90.1994°W)
Time: 14:04:45
(UTC-06:00)

S-56A Canister/Altair - Pass Details

Date: 02 December 2021
Orbit: 633 x 2499 km, 38.9° (Epoch: 19 January)

Event Time Altitude Azimuth Distance (km) Brightness Sun altitude
Rises 21:23:46 0° 200° (SSW) 5,812 12.0 -54.6°
Enters shadow 21:26:11 - 195° (SSW) 5,221 11.7 -55.1°
Reaches altitude 10° 21:29:07 10° 187° (S) 4,529 - -55.6°
Maximum altitude 21:37:09 21° 144° (SE) 3,179 - -57.1°
Drops below altitude 10° 21:43:29 10° 100° (E) 3,473 - -58.2°
Sets 21:46:51 0° 84° (E) 4,153 - -58.9°
